Location: C�mpuri de-Sus
(45.9500°N, 22.5500°E)
Time: 13:22:19
(UTC+00:00)

Cosmos 2322 Rocket - Pass Details

Date: 24 October 2021
Orbit: 832 x 852 km, 71.0° (Epoch: 07 December)

Event Time Altitude Azimuth Distance (km) Brightness Sun altitude
Rises 16:20:25 0° 185° (S) 3,361 5.5 -9.7°
Reaches altitude 10° 16:22:55 10° 179° (S) 2,432 4.7 -10.1°
Maximum altitude 16:28:11 46° 108° (ESE) 1,113 2.5 -11.0°
Drops below altitude 10° 16:33:31 10° 37° (NE) 2,453 4.2 -12.0°
Sets 16:36:03 0° 32° (NNE) 3,393 5.0 -12.4°
